Location: Unspecified
(36.5600°N, 136.6600°E)
Time: 03:03:58
(UTC+09:00)

BlueWalker 3 - Pass Details

Date: 17 June 2024
Orbit: 480 x 491 km, 53.2° (Epoch: 23 July)

Event Time Altitude Azimuth Distance (km) Brightness Sun altitude
Rises 21:40:57 0° 243° (WSW) 2,531 5.6 -22.3°
Reaches altitude 10° 21:43:12 10° 251° (WSW) 1,653 4.7 -22.5°
Maximum altitude 21:46:43 40° 322° (NW) 721 3.2 -22.9°
Drops below altitude 10° 21:50:16 10° 33° (NNE) 1,656 4.9 -23.3°
Sets 21:52:31 0° 41° (NE) 2,537 5.7 -23.5°
